#timestamp,LO_Frequency,Hit,StdDev 
1672556415.5,286047000.1,N
1672556435.4,286047000.2,N
1672556455.2,286047000.1,N
1672556475.0,286047002.3,N
1672556475.9,286047002.3,N
1672556495.8,286047002.8,N
1672556515.6,286047002.8,N
1672556535.4,286047002.2,N
1672556555.3,286047000.2,N
1672556575.1,286046999.9,N
1672556595.9,286046999.9,N
1672556615.7,286046999.8,N
1672556635.5,286047000.4,N
1672556655.4,286047000.0,N
1672556675.2,286047000.9,N
1672556695.0,286047000.2,N
1672556695.9,286047000.2,N
1672556715.8,286047000.2,N
1672556735.6,286046999.9,N
1672556755.5,286046999.9,N
1672556775.3,286047002.4,N
1672556795.1,286046999.8,N
1672556815.9,286046999.7,N
1672556835.7,286047002.8,N
1672556855.5,286047002.7,N
1672556875.4,286047002.4,N
1672556895.2,286047002.3,N
1672556915.1,286047002.5,N
1672556916.0,286047002.5,N
1672556935.8,286047002.2,N
1672556955.6,286047002.5,N
1672556975.5,286047002.2,N
1672556995.3,286047002.6,N
1672557015.1,286046999.8,N
1672557035.9,286047002.3,N
1672557055.7,286047002.2,N
1672557075.6,286047002.7,N
1672557095.4,286046999.8,N
1672557115.2,286047002.8,N
1672557135.1,286047002.4,N
1672557136.0,286047002.4,N
1672557155.8,286047002.6,N
1672557175.6,286047002.6,N
1672557195.5,286047002.3,N
1672557215.3,286047002.3,N
1672557235.2,286047002.6,N
1672557255.9,286047002.1,N
1672557275.7,286047002.0,N
1672557295.6,286047001.9,N
1672557315.4,286047002.3,N
1672557335.2,286047002.0,N
1672557355.1,286047002.3,N
1672557356.0,286047002.3,N
1672557375.8,286047001.6,N
1672557395.7,286047001.6,N
1672557415.5,286047002.1,Y
1672557435.3,286047000.9,P
1672557455.2,286047000.7,N
1672557475.9,286047000.8,N
1672557495.7,286047001.1,N
1672557515.6,286047000.8,N
1672557535.4,286047001.1,N
1672557555.3,286046998.5,Y
1672557575.1,286046998.4,P
1672557576.0,286046998.4,N
1672557595.8,286046998.9,N
1672557615.7,286046998.8,N
1672557635.5,286046998.4,N
1672557655.3,286047000.8,N
1672557675.2,286047000.7,N
1672557695.0,286046998.2,N
1672557695.9,286046998.2,N
1672557715.7,286046998.2,N
1672557735.6,286046998.2,N
1672557755.4,286047001.2,N
1672557775.3,286047000.7,N
1672557795.1,286047000.7,N
1672557796.0,286047000.7,N
1672557815.8,286047001.0,N
1672557835.7,286047001.0,N
1672557855.5,286046998.2,N
1672557875.3,286047000.9,N
1672557895.2,286047000.7,N
1672557915.0,286047001.0,N
1672557915.9,286047001.0,N
1672557935.8,286047001.0,N
1672557955.6,286047001.1,N
1672557975.4,286047001.1,N
1672557995.3,286047001.2,N
1672558015.1,286047001.2,N
1672558035.8,286047000.7,N
1672558055.7,286047000.6,N
1672558075.5,286047000.9,N
1672558095.4,286047001.1,N
1672558115.2,286047000.5,N
1672558135.0,286047000.5,N
1672558135.9,286047000.5,N
1672558155.8,286047000.3,N
1672558175.6,286046999.9,N
1672558195.4,286047000.0,N
1672558215.3,286047000.9,N
1672558235.1,286047001.0,N
1672558255.9,286047000.9,N
1672558275.7,286047000.0,N
1672558295.5,286047000.1,N
1672558315.4,286047000.3,N
1672558335.2,286047002.7,Y
1672558355.0,286047000.7,P
1672558355.9,286047000.7,P
1672558375.8,286047000.7,P
1672558395.6,286047000.7,Y
1672558415.5,286046998.3,P
1672558435.3,286046998.7,N
1672558455.1,286046998.8,N
1672558475.9,286046998.9,N
1672558495.7,286046998.6,N
1672558515.5,286046998.2,N
1672558535.4,286046998.3,N
1672558555.2,286047001.0,N
1672558575.1,286047000.9,N
1672558576.0,286047000.9,N
1672558595.8,286046998.1,N
1672558615.6,286047001.0,N
1672558635.5,286047001.0,N
1672558655.3,286047000.6,N
1672558675.1,286047000.5,N
1672558695.9,286047000.6,N
1672558715.7,286047001.1,N
1672558735.5,286047000.4,N
1672558755.4,286047000.5,N
1672558775.2,286047000.5,N
1672558795.1,286047001.0,N
1672558796.0,286047001.0,N
1672558815.8,286047000.0,N
1672558835.6,286047000.3,N
1672558855.5,286047000.7,N
1672558875.3,286047000.4,N
1672558895.1,286047001.2,N
1672558915.9,286047000.9,N
1672558935.7,286046998.1,N
1672558955.6,286047000.4,N
1672558975.4,286047000.0,N
1672558995.2,286047000.0,N
1672559015.1,286047000.6,N
1672559016.0,286047000.6,N
1672559035.8,286047000.2,N
1672559055.6,286047000.1,N
1672559075.5,286047000.5,N
1672559095.3,286046999.8,N
1672559115.2,286046999.8,N
1672559135.9,286047000.5,N
1672559155.7,286047000.2,N
1672559175.6,286047000.1,N
1672559195.4,286046999.8,N
1672559215.2,286046999.7,N
1672559235.1,286047002.8,Y
1672559236.0,286047002.8,P
1672559255.8,286047000.9,N
1672559275.7,286047000.6,N
1672559295.5,286046999.9,N
1672559315.3,286047000.0,N
1672559335.2,286047000.8,N
1672559355.0,286047000.4,N
1672559355.9,286047000.4,N
1672559375.7,286047000.5,N
1672559395.6,286047000.6,N
1672559415.4,286047001.1,N
1672559435.3,286047000.7,N
1672559455.1,286047000.8,N
1672559456.0,286047000.8,N
1672559475.8,286047000.5,N
1672559495.7,286047000.0,N
1672559515.5,286047000.7,N
1672559535.3,286047001.0,N
1672559555.2,286047000.6,N
1672559575.0,286047000.4,N
1672559575.9,286047000.4,N
1672559595.8,286047000.4,N
1672559615.6,286047000.7,N
1672559635.4,286046999.9,N
1672559655.3,286047002.7,Y
1672559675.1,286047000.9,P
1672559695.8,286047000.6,P
1672559715.7,286047000.4,N
1672559735.5,286047000.4,N
1672559755.4,286047000.5,N
1672559775.2,286047000.6,Y
1672559795.0,286047001.2,P
1672559795.9,286047001.2,P
1672559815.8,286047001.2,P
1672559835.6,286046998.8,Y
1672559855.5,286046999.3,P
1672559875.3,286046998.7,N
1672559895.1,286046999.3,N
1672559915.9,286046999.0,N
1672559935.7,286046998.5,N
1672559955.5,286046998.5,N
1672559975.4,286046998.1,N
1672559995.2,286046998.7,N
